This is the latest recevied weather packets stored in our database for station/object WC4PEM-10. If no packets are shown the sender has not sent any weather packets the latest 10 day(s).
| Time | Temp. | Humidity | Pressure | Rain* | Wind** | Luminosity | Snow |
|---|---|---|---|---|---|---|---|
| 1777423608 | 24.44° C | 75% | 1017.3 hPa | 0 mm | - | - | - |
| 1777423549 | 24.44° C | 75% | 1017.3 hPa | 0 mm | - | - | - |
| 1777423308 | 24.44° C | 75% | 1017.3 hPa | 0 mm | - | - | - |
| 1777423008 | 24.44° C | 74% | 1017.4 hPa | 0 mm | - | - | - |
| 1777422811 | 25° C | 73% | 1017.2 hPa | 0 mm | - | - | - |
| 1777422708 | 24.44° C | 74% | 1017.3 hPa | 0 mm | - | - | - |
| 1777422430 | 25° C | 73% | 1017.4 hPa | 0 mm | - | - | - |
| 1777422408 | 25° C | 73% | 1017.2 hPa | 0 mm | - | - | - |
| 1777422180 | 25° C | 72% | 1017.1 hPa | 0 mm | - | - | - |
| 1777422108 | 25° C | 73% | 1017.4 hPa | 0 mm | - | - | - |
| 1777421808 | 25° C | 73% | 1017.3 hPa | 0 mm | - | - | - |
| 1777421508 | 25° C | 72% | 1017.1 hPa | 0 mm | - | - | - |
| 1777421208 | 25.56° C | 72% | 1017 hPa | 0 mm | - | - | - |
| 1777420908 | 25.56° C | 72% | 1017.1 hPa | 0 mm | - | - | - |
| 1777420608 | 25.56° C | 71% | 1016.9 hPa | 0 mm | - | - | - |
| 1777420409 | 26.11° C | 70% | 1017 hPa | 0 mm | - | - | - |
| 1777420308 | 25.56° C | 70% | 1017 hPa | 0 mm | - | - | - |
| 1777420238 | 26.11° C | 70% | 1017 hPa | 0 mm | - | - | - |
| 1777420008 | 26.11° C | 70% | 1017 hPa | 0 mm | - | - | - |
| 1777419993 | 26.11° C | 70% | 1017 hPa | 0 mm | - | - | - |
| 1777419711 | 26.11° C | 70% | 1017 hPa | 0 mm | - | - | - |
| 1777419708 | 26.11° C | 70% | 1017 hPa | 0 mm | - | - | - |
| 1777419408 | 26.11° C | 70% | 1017 hPa | 0 mm | - | - | - |
| 1777419108 | 26.67° C | 69% | 1017 hPa | 0 mm | - | - | - |
| 1777419028 | 26.67° C | 69% | 1016.8 hPa | 0 mm | - | - | - |
* Rain latest hour (hover to see other rain measurements)
** Current wind speed in m/s (hover to see current wind gust speed)